Showing default

VSP ROSE, 59124

Orbit data source: Space-Track

VSP ROSE, 59124 is a payload satellite owned by Aerospacelab (BE) in SSO that was launched on Mon, 04 Mar 2024 UTC via an FALCON 9 launch vehicle from the Air Force Western Test Range (AFWTR). Payload-class satellites include a variety of spacecraft equipped with specific instruments for various scientific and technological missions. These include communications satellites like Starlink; space stations such as the ISS; scientific satellites like the Hubble; Earth observation satellites from companies like Planet Labs, Umbra, and HawkEye 360; GPS; miniature CubeSats for education and research; and military/defense satellites.

Loading next visibility...
Identifier
59124, 2024-043AC
Orbit
SSO
Last TLE update
10 hours ago
Origin
Manufacturer
Aerospacelab
Mission
Operational Commercial Communications
Bus & Motor
AEROSP, Unknown motor
Mass
~200 kg wet, ~200 kg dry
Launch date (UTC)
2024-03-04 (1 year ago)
Launch vehicle
FALCON 9
Launch site
Air Force Western Test Range (AFWTR)
Object type
Payload
Rocket body
Debris
Shape & HBR
Box, 0.05 m
Radar Cross Section
0.004 m², Medium (>0.1 m² and < 1m²)

Expand to show TLE details & history

TLE from 10 hours ago
0 VSP ROSE
1 59124U 24043AC  25183.89196969  .00003547  00000-0  14653-3 0  9991
2 59124  97.5169 312.0185 0012698  43.5017 316.7220 15.24610824 73695
Epoch: 2025-07-02T21:24Z
TLE epoch observation values (Epoch: 2025-07-02T21:24:26.181Z)
Latitude
0.00003°
Longitude
69.74285°
Altitude
488.7 km
Speed
7.624 km/s
True Right ascension
20h 48m 04s
True Declination
0° 00' 00"
Sunlit
Object was in full shadow at epoch
Visualization orbit readout
Latitude
26.7466°
Longitude
66.35097°
Altitude
486.928 km
Speed
7.629 km/s
Apparent Right ascension
00h 01m 11s
Apparent Declination
-19° 04' 12"
Sunlit
Object is in full shadow
Visualization observer readout
Local Sidereal Time
18:44:17
Azimuth
111.405° ESE
Elevation
-4.252°
Doppler factor
1
Orbital elements
Apogee altitude
497.639 km
Perigee altitude
480.199 km
Semi-major axis
6,867.056 km
Eccentricity
0.00127
Inclination
97.5169°
RAAN
312.0185°
Arg. of periapsis
43.5017°
True anomaly
Unknown
Mean anomaly
316.722°
Eccentric anomaly
Unknown
Mean motion
3.81406 °/min
Orbital period
94.39 mins
BSTAR
0.00014653
Loading maneuver chart data...
Loading SW <> Apogee altitude chart data...
Loading historical data...
Loading historical data...
Loading historical data...
Loading historical data...
Loading historical data...
Loading historical data...
Loading historical data...

VSP ROSE Visibility forecast

Observer location: undefined°, undefined°

Span
Click to sort rows by Start time (UTC) header in descending order
Start Az.
Max El. time (UTC)
Max El. Az.
Max El.
End time (UTC)
End Az.
6 mins2025-07-03 08:33:31.742Z164.726° S2025-07-03 08:36:31.742Z96.551° ESE44.851°2025-07-03 08:39:31.742Z349.486° N
5 mins2025-07-03 21:36:31.742Z1.16° NNE2025-07-03 21:38:31.742Z287.6° WNW42.572°2025-07-03 21:41:31.742Z203.176° SW
|